Regional Weather Roundup
Issued by NWS Grand Forks, ND

Home | Current Version | Previous Version | Text Only | Print | Product List | Glossary Off
Versions: 1 2 3 4 5 6 7 8 9 10 11 12 13 14 15 16 17 18 19 20 21 22 23 24 25 26 27 28 29 30 31 32 33 34 35 36 37 38 39 40 41 42 43 44 45 46 47 48 49 50

000
ASUS43 KFGF 220931
RWRFGF
PRAIRIE TO PINES  WEATHER ROUNDUP
NATIONAL WEATHER SERVICE EASTERN NORTH DAKOTA/GRAND FORKS ND
400 AM CDT MON SEP 22 2014

 **SATELLITE DATA USED TO AUGMENT SKY COVER AT AUTOMATED STATIONS**
 *****  WEATHER ACROSS EASTERN NORTH DAKOTA  *****

CITY           SKY/WX    TMP DP  RH WIND       PRES   REMARKS
GRAND FORKS    CLEAR     47  45  93 S6        30.14S
GRAND FRKS AFB CLEAR     47  47  99 SW6       30.14F
GRAND FRKS NWS   N/A     48 N/A N/A S3          N/A
DEVILS LAKE    CLEAR     55  45  67 SW8       30.13S
FARGO          CLEAR     50  46  86 S6        30.18F
WAHPETON ARPT  SUNNY     43  41  93 SE5       30.21S
$$

 ***** WEATHER ACROSS CENTRAL AND WESTERN NORTH DAKOTA  *****

CITY           SKY/WX    TMP DP  RH WIND       PRES   REMARKS
BISMARCK       CLEAR     46  42  86 E3        30.18F
MINOT          CLEAR     55  42  61 SW3       30.11F
JAMESTOWN      CLEAR     44  41  89 S3        30.18S
MINOT AFB      CLEAR     49  43  80 SW7       30.10F
GARRISON         N/A     48  44  86 S3        30.14F
WILLISTON      CLEAR     39  34  82 CALM      30.09F
DICKINSON      CLEAR     46  38  73 S9        30.13F
HETTINGER      CLEAR     50  39  66 SE8       30.16F
$$

 *****  OTHER AIRPORT OBSERVATIONS IN OUR AREA  *****

CITY           SKY/WX    TMP DP  RH WIND       PRES   REMARKS
WALHALLA       FAIR      48  48 100 CALM      30.11S
GRAFTON AIRPOR FAIR      41  41 100 S7        30.13S
VALLEY CITY AR FAIR      41  41 100 S5        30.18S
CANDO          FAIR      43  41  93 SW3       30.14S
CAVALIER APRT  FAIR      52  46  82 SW7       30.12S
GWINNER        SUNNY     46  46 100 SW9       30.22S
ROLLA          FAIR      48  45  87 SW9       30.14S
 ***** THE ABOVE OBSERVATIONS ARE NON NWS ARE NOT QUALITY
       CONTROLLED AND MAY MIS-REPORT RAIN FOR SNOW...
$$

  *****  WEATHER ACROSS NORTHERN MINNESOTA  *****

CITY           SKY/WX    TMP DP  RH WIND       PRES   REMARKS
FLAG ISLAND    CLEAR     52  48  87 SW16      30.08F
WARROAD        CLEAR     48  45  87 SW6       30.13S
ROSEAU         CLEAR     52  46  82 SW9       30.12F
HALLOCK        CLEAR     46  45  93 S7        30.12S
THF RVR FALLS  CLEAR     48  46  93 S7        30.16S
BAUDETTE       CLEAR     48  46  93 SW6       30.13S
WASKISH        CLEAR     43  41  93 CALM      30.16S
CROOKSTON      CLEAR     46  46 100 S7        30.17S
STEPHEN NDAWN    N/A     46  46 100 S3          N/A
GREENBUSH NDAW   N/A     50  48  93 S6          N/A
$$
  *****  WEATHER ACROSS CENTRAL AND WEST MINNESOTA  *****

CITY           SKY/WX    TMP DP  RH WIND       PRES   REMARKS
FOSSTON        CLEAR     41  41 100 S7        30.18F
BEMIDJI        CLEAR     45  44  96 SW6       30.18R
PARK RAPIDS    CLEAR     42  40  92 CALM      30.20S FOG
ELBOW LAKE     FAIR      45  44  97 S6        30.22S
WADENA         CLEAR     39  39 100 CALM      30.21S
DETROIT LAKES  CLEAR     48  46  93 S3        30.21S
MOORHEAD       CLEAR     48  48 100 S5        30.20S
FERGUS FALLS   CLEAR     46  45  93 SE6       30.22S
MORRIS MN      CLEAR     45  43  93 S5        30.22S FOG
STAPLES        CLEAR     39  39 100 CALM      30.22R
$$
  *****  WEATHER ELSEWHERE ACROSS MINNESOTA  *****

CITY           SKY/WX    TMP DP  RH WIND       PRES   REMARKS
DULUTH         CLEAR     48  45  89 W6        30.17S
INTRNTL FALLS  CLEAR     42  42 100 SW5       30.14S
ELY            CLEAR     45  45 100 CALM      30.16R
CLOQUET        CLEAR     46  45  93 W6        30.18S
WHEATON        CLEAR     46  43  87 S5        30.23S
BRAINERD       FOG       40  40 100 CALM      30.21F VSB 3/4
HIBBING        FOG       36  35  96 CALM      30.18R VSB 3/4
ALEXANDRIA     CLEAR     46  44  93 SW5       30.24S
SAINT CLOUD    CLEAR     45  43  93 CALM      30.22S
MINNEAPOLIS    CLEAR     51  48  89 CALM      30.22S
$$

  *****  WEATHER ACROSS SOUTH DAKOTA  *****

CITY           SKY/WX    TMP DP  RH WIND       PRES   REMARKS
SIOUX FALLS    CLEAR     45  43  93 CALM      30.27F
BROOKINGS      NOT AVBL
WATERTOWN      CLEAR     44  42  93 S5        30.25R
HURON          CLEAR     50  43  77 S5        30.24S
SISSETON         N/A     45  44  97 S5        30.20F
ABERDEEN       CLEAR     39  38  96 S5        30.23S
MITCHELL       CLEAR     45  43  93 SE3       30.26F
PIERRE         CLEAR     47  41  80 SE9       30.21S
MOBRIDGE       CLEAR     47  46  97 SE8       30.18F
RAPID CITY     CLEAR     48  38  68 SE9       30.18F
$$

  *****  SOME WEATHER IN NEARBY STATES *****

CITY           SKY/WX    TMP DP  RH WIND       PRES   REMARKS
GLASGOW MT     CLEAR     50  35  56 E14       30.00F
GREAT FALLS MT CLEAR     59  44  57 S10       29.96F
CHEYENNE WY    MOCLDY    52  43  71 S3        30.28F
SCOTTSBLUFF NE PTCLDY    57  44  62 SE12      30.21F
OMAHA NE       CLEAR     50  48  93 CALM      30.30S
DES MOINES IA  CLEAR     52  47  83 CALM      30.26S
DAVENPORT IA   CLEAR     43  41  93 NW6       30.24R
CHICAGO IL     PTCLDY    48  41  76 NW7       30.18S
EAU CLAIRE WI  CLEAR     45  42  89 W3        30.21R
LA CROSSE WI   CLOUDY    49  47  93 S6        30.23R FOG
$$

  *****  SOME NATIONAL WEATHER *****

CITY           SKY/WX    TMP DP  RH WIND       PRES   REMARKS
LA GUARDIA NY  PTCLDY    67  56  67 W12       29.70R
RALEIGH NC     MOCLDY    68  60  75 CALM      29.92R
ATLANTA GA     CLOUDY    70  65  84 NW9       29.99R
NEW ORLEANS LA PTCLDY    74  70  87 CALM      30.00S
OKLAHOMA CITY  CLEAR     62  49  62 NE7       30.22S
ALBUQUERQUE NM PTCLDY    66  54  65 SE12      30.29F
SALT LAKE CITY CLOUDY    62  56  80 SE7       30.13F
LOS ANGELES CA PTCLDY    67  63  87 CALM      29.97R
BOISE ID       LGT RAIN  63  57  81 S8        30.04R
SEATTLE WA     MOCLDY    62  57  83 S7        29.97S
$$

*** WEATHER ACROSS MANITOBA...SASKATCHEWAN AND ONTARIO ***
                ***ONTARIO***

CITY           SKY/WX    TMP DP  RH WIND       PRES   REMARKS
GERALDTON      PTCLDY    34  34 100 SW3       30.01F
THUNDER BAY    CLOUDY    43  41  93 VRB2      30.08S
SIOUX LOOKOUT  CLEAR     50  48  93 W5        30.05F
TORONTO        MOCLDY    48  43  81 NW20G25   29.90R
BIG TROUT LK   CLOUDY    50  45  81 W6        29.81F
PICKLE LAKE    NOT AVBL
DRYDEN         CLEAR     48  48 100 W9        30.07F
KENORA         CLEAR     50  48  93 SW9       30.09F
$$
                *** MANITOBA***

CITY           SKY/WX    TMP DP  RH WIND       PRES   REMARKS
BRANDON        CLEAR     45  41  87 W9        30.09F
DAUPHIN        CLEAR     55  43  62 W8        30.02S
ISLAND LAKE    PTCLDY    54  50  87 CALM      29.83F
PILOT MOUND    NOT AVBL
THE PAS        CLEAR     59  48  67 W12       29.87F
THOMPSON       PTCLDY    45  45 100 W2        29.77R
WINNIPEG       CLEAR     52  45  76 SW12      30.08S
LYNN LAKE      CLEAR     52  48  87 NW5       29.80R
CHURCHILL      CLOUDY    41  39  93 E14       29.82R
GILLAM         LGT RAIN  52  52 100 W3        29.73S
$$
                ***SASKATCHEWAN***

CITY           SKY/WX    TMP DP  RH WIND       PRES   REMARKS
ESTEVAN        CLEAR     45  41  87 S2        30.09F
KINDERSLEY     CLEAR     50  43  76 S8        29.90F
LLOYDMINSTER   CLEAR     52  43  71 S9        29.83F
PRINCE ALBERT  CLEAR     45  41  87 CALM      29.93F
REGINA         CLEAR     45  41  87 SE8       30.04F
YORKTON        CLEAR     50  43  76 S8        30.04S
N. BATTLEFORD  CLEAR     50  43  76 E9        29.91F
LA RONGE       CLEAR     46  45  93 SW3       29.86F
SASKATOON      CLEAR     50  43  76 S6        29.96F
SWIFT CURRENT  CLEAR     55  39  54 S23G29    29.93F
$$
NOTE: THESE ARE AUTOMATED STATIONS WITH LIMITED QUALITY CONTROL
      "FAIR" INDICATES FEW OR NO CLOUDS BELOW 12,000 FEET WITH NO
      SIGNIFICANT WEATHER AND/OR OBSTRUCTIONS TO VISIBILITY.
      SKY/WX - SKY CONDITION AND SIGNIFICANT WEATHER.
      TMP - AIR TEMPERATURE.    DP   - DEWPOINT TEMPERATURE.
      RH  - RELATIVE HUMIDITY.  PRES - PRESSURE.
      HX  - HEAT INDEX.         WCI  - WIND CHILL INDEX.
$


USA.gov is the U.S. government's official web portal to all federal, state and local government web resources and services.